START_TIME,STEP,MOV.,M35,t_acc.,PL05,t_acc.,PL06,t_acc.,PL07,t_acc.
1979-03-08 22:23:10.510 ,0,0,0.,4.8,1.,4.8,1.,4.8,1.,4.8
1979-03-08 22:23:15.310 ,0,0,0.,4.8,2.,4.8,2.,4.8,1.,4.8
1979-03-08 22:23:20.110 ,0,0,0.,4.8,2.,4.8,0.,4.8,1.,4.8
1979-03-08 22:23:24.910 ,0,0,0.,4.8,1.,4.8,0.,4.8,0.,4.8
1979-03-08 22:23:29.710 ,0,0,0.,4.8,1.,4.8,0.,4.8,0.,4.8
1979-03-08 22:23:33.910 ,0,0,0.,4.8,0.,4.8,1.,4.8,0.,4.8
1979-03-08 22:23:38.710 ,0,0,0.,4.8,0.,4.8,0.,4.8,0.,4.8
1979-03-08 22:23:43.510 ,0,0,0.,4.8,0.,4.8,0.,4.8,0.,4.8
1979-03-08 22:23:48.310 ,0,0,0.,4.8,4.,4.8,0.,4.8,1.,4.8
1979-03-08 22:23:53.110 ,0,0,0.,4.8,0.,4.8,0.,4.8,0.,4.8
1979-03-08 22:23:57.910 ,1,0,0.,4.8,0.,4.8,1.,4.8,0.,4.8
1979-03-08 22:24:02.710 ,1,0,0.,4.8,0.,4.8,0.,4.8,1.,4.8
1979-03-08 22:24:07.510 ,1,0,0.,4.8,0.,4.8,0.,4.8,2.,4.8
1979-03-08 22:24:12.310 ,1,0,0.,4.8,1.,4.8,0.,4.8,1.,4.8
1979-03-08 22:24:17.110 ,1,0,0.,4.8,0.,4.8,0.,4.8,1.,4.8
1979-03-08 22:24:21.910 ,2,0,0.,4.8,3.,4.8,0.,4.8,0.,4.8
1979-03-08 22:24:26.710 ,2,0,0.,4.8,2.,4.8,1.,4.8,1.,4.8
1979-03-08 22:24:31.510 ,2,0,0.,4.8,1.,4.8,0.,4.8,0.,4.8
1979-03-08 22:24:36.310 ,2,0,0.,4.8,2.,4.8,0.,4.8,1.,4.8
1979-03-08 22:24:41.110 ,2,0,0.,4.8,3.,4.8,0.,4.8,0.,4.8
1979-03-08 22:24:45.910 ,3,0,0.,4.8,0.,4.8,1.,4.8,0.,4.8
1979-03-08 22:24:50.710 ,3,0,0.,4.8,1.,4.8,0.,4.8,1.,4.8
1979-03-08 22:24:55.510 ,3,0,0.,4.8,0.,4.8,1.,4.8,2.,4.8
1979-03-08 22:25:00.310 ,3,0,0.,4.8,2.,4.8,0.,4.8,0.,4.8
1979-03-08 22:25:05.110 ,3,0,0.,4.8,2.,4.8,1.,4.8,2.,4.8
1979-03-08 22:25:09.910 ,4,0,0.,4.8,0.,4.8,0.,4.8,0.,4.8
1979-03-08 22:25:14.710 ,4,0,0.,4.8,3.,4.8,0.,4.8,0.,4.8
1979-03-08 22:25:19.510 ,4,0,0.,4.8,1.,4.8,4.,4.8,0.,4.8
1979-03-08 22:25:24.310 ,4,0,0.,4.8,3.,4.8,0.,4.8,1.,4.8
1979-03-08 22:25:29.110 ,4,0,0.,4.8,1.,4.8,0.,4.8,1.,4.8
1979-03-08 22:25:33.910 ,5,0,0.,4.8,0.,4.8,0.,4.8,2.,4.8
1979-03-08 22:25:38.710 ,5,0,0.,4.8,2.,4.8,1.,4.8,0.,4.8
1979-03-08 22:25:43.510 ,5,0,0.,4.8,1.,4.8,0.,4.8,1.,4.8
1979-03-08 22:25:48.310 ,5,0,0.,4.8,2.,4.8,0.,4.8,1.,4.8
1979-03-08 22:25:53.110 ,5,0,0.,4.8,2.,4.8,0.,4.8,0.,4.8
1979-03-08 22:25:57.910 ,6,0,0.,4.8,0.,4.8,1.,4.8,0.,4.8
1979-03-08 22:26:02.710 ,6,0,0.,4.8,1.,4.8,1.,4.8,1.,4.8
1979-03-08 22:26:07.510 ,6,0,0.,4.8,4.,4.8,0.,4.8,2.,4.8
1979-03-08 22:26:12.310 ,6,0,0.,4.8,1.,4.8,1.,4.8,0.,4.8
1979-03-08 22:26:17.110 ,6,0,0.,4.8,1.,4.8,1.,4.8,1.,4.8
1979-03-08 22:26:21.910 ,7,0,0.,4.8,0.,4.8,0.,4.8,1.,4.8
1979-03-08 22:26:26.710 ,7,0,0.,4.8,2.,4.8,1.,4.8,0.,4.8
1979-03-08 22:26:31.510 ,7,0,0.,4.8,0.,4.8,2.,4.8,0.,4.8
1979-03-08 22:26:36.310 ,7,0,0.,4.8,0.,4.8,0.,4.8,2.,4.8
1979-03-08 22:26:41.110 ,7,0,0.,4.8,0.,4.8,0.,4.8,0.,4.8
1979-03-08 22:26:45.910 ,7,0,0.,4.8,2.,4.8,0.,4.8,0.,4.8
1979-03-08 22:26:50.710 ,7,0,0.,4.8,0.,4.8,0.,4.8,0.,4.8
1979-03-08 22:26:55.510 ,7,0,0.,4.8,1.,4.8,1.,4.8,0.,4.8
1979-03-08 22:27:00.310 ,7,0,0.,4.8,1.,4.8,0.,4.8,2.,4.8
1979-03-08 22:27:05.110 ,7,0,0.,4.8,0.,4.8,1.,4.8,0.,4.8
1979-03-08 22:27:09.910 ,6,0,0.,4.8,0.,4.8,0.,4.8,1.,4.8
1979-03-08 22:27:14.710 ,6,0,0.,4.8,0.,4.8,0.,4.8,0.,4.8
1979-03-08 22:27:19.510 ,6,0,0.,4.8,1.,4.8,1.,4.8,1.,4.8
1979-03-08 22:27:24.310 ,6,0,0.,4.8,3.,4.8,0.,4.8,0.,4.8
1979-03-08 22:27:29.110 ,6,0,0.,4.8,1.,4.8,0.,4.8,0.,4.8
1979-03-08 22:27:33.910 ,5,0,0.,4.8,0.,4.8,0.,4.8,0.,4.8
1979-03-08 22:27:38.710 ,5,0,0.,4.8,1.,4.8,0.,4.8,0.,4.8
1979-03-08 22:27:43.510 ,5,0,0.,4.8,0.,4.8,1.,4.8,1.,4.8
1979-03-08 22:27:48.310 ,5,0,0.,4.8,2.,4.8,0.,4.8,0.,4.8
1979-03-08 22:27:53.110 ,5,0,0.,4.8,0.,4.8,0.,4.8,0.,4.8
1979-03-08 22:27:57.910 ,4,0,0.,4.8,0.,4.8,1.,4.8,0.,4.8
1979-03-08 22:28:02.710 ,4,0,0.,4.8,1.,4.8,0.,4.8,0.,4.8
1979-03-08 22:28:07.510 ,4,0,0.,4.8,1.,4.8,1.,4.8,0.,4.8
1979-03-08 22:28:12.310 ,4,0,0.,4.8,0.,4.8,0.,4.8,0.,4.8
1979-03-08 22:28:17.110 ,4,0,0.,4.8,1.,4.8,0.,4.8,0.,4.8
1979-03-08 22:28:21.910 ,3,0,0.,4.8,2.,4.8,0.,4.8,0.,4.8
1979-03-08 22:28:26.710 ,3,0,0.,4.8,1.,4.8,0.,4.8,0.,4.8
1979-03-08 22:28:31.510 ,3,0,0.,4.8,1.,4.8,0.,4.8,0.,4.8
1979-03-08 22:28:36.310 ,3,0,0.,4.8,0.,4.8,1.,4.8,1.,4.8
1979-03-08 22:28:41.110 ,3,0,0.,4.8,0.,4.8,2.,4.8,0.,4.8
1979-03-08 22:28:45.910 ,2,0,0.,4.8,2.,4.8,2.,4.8,0.,4.8
1979-03-08 22:28:50.710 ,2,0,0.,4.8,1.,4.8,0.,4.8,0.,4.8
1979-03-08 22:28:55.510 ,2,0,0.,4.8,3.,4.8,1.,4.8,0.,4.8
1979-03-08 22:29:00.310 ,2,0,0.,4.8,1.,4.8,0.,4.8,0.,4.8
1979-03-08 22:29:05.110 ,2,0,0.,4.8,2.,4.8,0.,4.8,0.,4.8
1979-03-08 22:29:09.910 ,1,0,0.,4.8,1.,4.8,0.,4.8,0.,4.8
1979-03-08 22:29:14.710 ,1,0,0.,4.8,2.,4.8,0.,4.8,1.,4.8
1979-03-08 22:29:19.510 ,1,0,0.,4.8,0.,4.8,0.,4.8,1.,4.8
1979-03-08 22:29:24.310 ,1,0,0.,4.8,3.,4.8,2.,4.8,0.,4.8
1979-03-08 22:29:29.110 ,1,0,0.,4.8,2.,4.8,0.,4.8,0.,4.8
1979-03-08 22:29:33.910 ,0,0,0.,4.8,2.,4.8,0.,4.8,0.,4.8
1979-03-08 22:29:38.710 ,0,0,0.,4.8,1.,4.8,2.,4.8,1.,4.8
1979-03-08 22:29:43.510 ,0,0,0.,4.8,0.,4.8,0.,4.8,0.,4.8
1979-03-08 22:29:48.310 ,0,0,0.,4.8,1.,4.8,1.,4.8,0.,4.8
1979-03-08 22:29:53.110 ,0,0,0.,4.8,1.,4.8,0.,4.8,1.,4.8
1979-03-08 22:29:57.910 ,0,0,0.,4.8,0.,4.8,0.,4.8,2.,4.8
1979-03-08 22:30:02.710 ,0,0,0.,4.8,1.,4.8,0.,4.8,0.,4.8
1979-03-08 22:30:07.510 ,0,0,0.,4.8,1.,4.8,0.,4.8,0.,4.8
1979-03-08 22:30:12.310 ,0,0,0.,4.8,3.,4.8,0.,4.8,0.,4.8
1979-03-08 22:30:17.110 ,0,0,0.,4.8,0.,4.8,0.,4.8,0.,4.8
1979-03-08 22:30:21.910 ,1,0,0.,4.8,0.,4.8,0.,4.8,0.,4.8
1979-03-08 22:30:26.710 ,1,0,0.,4.8,1.,4.8,0.,4.8,0.,4.8
1979-03-08 22:30:31.510 ,1,0,0.,4.8,1.,4.8,1.,4.8,1.,4.8
1979-03-08 22:30:36.310 ,1,0,0.,4.8,1.,4.8,0.,4.8,0.,4.8
1979-03-08 22:30:41.110 ,1,0,0.,4.8,3.,4.8,0.,4.8,1.,4.8
1979-03-08 22:30:45.910 ,2,0,0.,4.8,1.,4.8,1.,4.8,0.,4.8
1979-03-08 22:30:50.710 ,2,0,0.,4.8,3.,4.8,1.,4.8,1.,4.8
1979-03-08 22:30:55.510 ,2,0,0.,4.8,1.,4.8,1.,4.8,0.,4.8
1979-03-08 22:31:00.310 ,2,0,0.,4.8,1.,4.8,1.,4.8,1.,4.8
1979-03-08 22:31:05.110 ,2,0,0.,4.8,0.,4.8,0.,4.8,0.,4.8
1979-03-08 22:31:09.910 ,3,0,0.,4.8,1.,4.8,0.,4.8,1.,4.8
1979-03-08 22:31:14.710 ,3,0,0.,4.8,0.,4.8,1.,4.8,1.,4.8
1979-03-08 22:31:19.510 ,3,0,0.,4.8,3.,4.8,1.,4.8,0.,4.8
1979-03-08 22:31:24.310 ,3,0,0.,4.8,2.,4.8,1.,4.8,2.,4.8
1979-03-08 22:31:29.110 ,3,0,0.,4.8,0.,4.8,0.,4.8,1.,4.8
1979-03-08 22:31:33.910 ,4,0,0.,4.8,1.,4.8,0.,4.8,3.,4.8
1979-03-08 22:31:38.710 ,4,0,0.,4.8,0.,4.8,1.,4.8,0.,4.8
1979-03-08 22:31:43.510 ,4,0,0.,4.8,3.,4.8,1.,4.8,0.,4.8
1979-03-08 22:31:48.310 ,4,0,0.,4.8,1.,4.8,1.,4.8,0.,4.8
1979-03-08 22:31:53.110 ,4,0,0.,4.8,0.,4.8,0.,4.8,0.,4.8
1979-03-08 22:31:57.910 ,5,0,0.,4.8,1.,4.8,0.,4.8,0.,4.8
1979-03-08 22:32:02.710 ,5,0,0.,4.8,3.,4.8,0.,4.8,2.,4.8
1979-03-08 22:32:07.510 ,5,0,0.,4.8,0.,4.8,1.,4.8,0.,4.8
1979-03-08 22:32:12.310 ,5,0,0.,4.8,1.,4.8,0.,4.8,0.,4.8
1979-03-08 22:32:17.110 ,5,0,0.,4.8,3.,4.8,0.,4.8,0.,4.8
1979-03-08 22:32:21.910 ,6,0,0.,4.8,1.,4.8,0.,4.8,0.,4.8
1979-03-08 22:32:26.710 ,6,0,0.,4.8,1.,4.8,0.,4.8,0.,4.8
1979-03-08 22:32:31.510 ,6,0,0.,4.8,1.,4.8,2.,4.8,0.,4.8
1979-03-08 22:32:36.310 ,6,0,0.,4.8,2.,4.8,0.,4.8,0.,4.8
1979-03-08 22:32:41.110 ,6,0,0.,4.8,1.,4.8,0.,4.8,1.,4.8
1979-03-08 22:32:45.910 ,7,0,0.,4.8,1.,4.8,0.,4.8,0.,4.8
1979-03-08 22:32:50.710 ,7,0,0.,4.8,1.,4.8,0.,4.8,1.,4.8
1979-03-08 22:32:55.510 ,7,0,0.,4.8,0.,4.8,0.,4.8,1.,4.8
1979-03-08 22:33:00.310 ,7,0,0.,4.8,1.,4.8,0.,4.8,0.,4.8
1979-03-08 22:33:05.110 ,7,0,0.,4.8,0.,4.8,0.,4.8,1.,4.8
1979-03-08 22:33:09.910 ,7,0,0.,4.8,0.,4.8,0.,4.8,1.,4.8
1979-03-08 22:33:14.710 ,7,0,0.,4.8,0.,4.8,0.,4.8,0.,4.8
1979-03-08 22:33:19.510 ,7,0,0.,4.8,0.,4.8,1.,4.8,0.,4.8
1979-03-08 22:33:24.310 ,7,0,0.,4.8,1.,4.8,0.,4.8,0.,4.8
1979-03-08 22:33:29.110 ,7,0,0.,4.8,0.,4.8,0.,4.8,0.,4.8
1979-03-08 22:33:33.910 ,6,0,0.,4.8,1.,4.8,0.,4.8,0.,4.8
1979-03-08 22:33:38.710 ,6,0,0.,4.8,0.,4.8,0.,4.8,0.,4.8
1979-03-08 22:33:43.510 ,6,0,0.,4.8,1.,4.8,0.,4.8,0.,4.8
1979-03-08 22:33:48.310 ,6,0,0.,4.8,3.,4.8,0.,4.8,0.,4.8
1979-03-08 22:33:53.110 ,6,0,0.,4.8,0.,4.8,0.,4.8,0.,4.8
1979-03-08 22:33:57.910 ,5,0,0.,4.8,1.,4.8,0.,4.8,0.,4.8
1979-03-08 22:34:02.710 ,5,0,0.,4.8,2.,4.8,0.,4.8,0.,4.8
1979-03-08 22:34:07.510 ,5,0,0.,4.8,2.,4.8,0.,4.8,0.,4.8
1979-03-08 22:34:12.310 ,5,0,0.,4.8,2.,4.8,0.,4.8,0.,4.8
1979-03-08 22:34:17.110 ,5,0,0.,4.8,1.,4.8,0.,4.8,1.,4.8
1979-03-08 22:34:21.910 ,4,0,0.,4.8,4.,4.8,1.,4.8,1.,4.8
1979-03-08 22:34:26.710 ,4,0,0.,4.8,2.,4.8,0.,4.8,1.,4.8
1979-03-08 22:34:31.510 ,4,0,0.,4.8,1.,4.8,0.,4.8,0.,4.8
1979-03-08 22:34:36.310 ,4,0,0.,4.8,1.,4.8,1.,4.8,1.,4.8
1979-03-08 22:34:41.110 ,4,0,0.,4.8,0.,4.8,1.,4.8,0.,4.8
1979-03-08 22:34:45.910 ,3,0,0.,4.8,1.,4.8,0.,4.8,1.,4.8
1979-03-08 22:34:50.710 ,3,0,0.,4.8,1.,4.8,0.,4.8,1.,4.8
1979-03-08 22:34:55.510 ,3,0,0.,4.8,1.,4.8,0.,4.8,0.,4.8
1979-03-08 22:35:00.310 ,3,0,0.,4.8,2.,4.8,1.,4.8,0.,4.8
1979-03-08 22:35:05.110 ,3,0,0.,4.8,2.,4.8,0.,4.8,1.,4.8
1979-03-08 22:35:09.910 ,2,0,0.,4.8,0.,4.8,1.,4.8,0.,4.8
1979-03-08 22:35:14.710 ,2,0,0.,4.8,4.,4.8,0.,4.8,0.,4.8
1979-03-08 22:35:19.510 ,2,0,0.,4.8,1.,4.8,0.,4.8,0.,4.8
1979-03-08 22:35:24.310 ,2,0,0.,4.8,1.,4.8,2.,4.8,0.,4.8
1979-03-08 22:35:29.110 ,2,0,0.,4.8,1.,4.8,3.,4.8,0.,4.8
1979-03-08 22:35:33.910 ,1,0,0.,4.8,4.,4.8,0.,4.8,0.,4.8
1979-03-08 22:35:38.710 ,1,0,0.,4.8,3.,4.8,0.,4.8,0.,4.8
1979-03-08 22:35:43.510 ,1,0,0.,4.8,1.,4.8,3.,4.8,1.,4.8
1979-03-08 22:35:48.310 ,1,0,0.,4.8,0.,4.8,0.,4.8,0.,4.8
1979-03-08 22:35:53.110 ,1,0,0.,4.8,0.,4.8,0.,4.8,1.,4.8
1979-03-08 22:35:57.910 ,0,0,0.,4.8,0.,4.8,0.,4.8,0.,4.8
1979-03-08 22:36:02.710 ,0,0,0.,4.8,3.,4.8,1.,4.8,0.,4.8
1979-03-08 22:36:07.510 ,0,0,0.,4.8,2.,4.8,1.,4.8,0.,4.8
1979-03-08 22:36:12.310 ,0,0,0.,4.8,1.,4.8,0.,4.8,0.,4.8
1979-03-08 22:36:17.110 ,0,0,0.,4.8,1.,4.8,0.,4.8,0.,4.8
1979-03-08 22:36:21.910 ,0,0,0.,4.8,2.,4.8,0.,4.8,1.,4.8
1979-03-08 22:36:26.710 ,0,0,0.,4.8,0.,4.8,0.,4.8,0.,4.8
1979-03-08 22:36:31.510 ,0,0,0.,4.8,1.,4.8,0.,4.8,0.,4.8
1979-03-08 22:36:36.310 ,0,0,0.,4.8,0.,4.8,0.,4.8,0.,4.8
1979-03-08 22:36:41.110 ,0,0,0.,4.8,0.,4.8,0.,4.8,2.,4.8
1979-03-08 22:36:45.910 ,1,0,0.,4.8,1.,4.8,0.,4.8,1.,4.8
1979-03-08 22:36:50.710 ,1,0,0.,4.8,0.,4.8,1.,4.8,0.,4.8
1979-03-08 22:36:55.510 ,1,0,0.,4.8,1.,4.8,0.,4.8,1.,4.8
1979-03-08 22:37:00.310 ,1,0,0.,4.8,1.,4.8,1.,4.8,2.,4.8
1979-03-08 22:37:05.110 ,1,0,0.,4.8,2.,4.8,1.,4.8,0.,4.8
1979-03-08 22:37:09.910 ,2,0,0.,4.8,1.,4.8,0.,4.8,0.,4.8
1979-03-08 22:37:14.710 ,2,0,0.,4.8,0.,4.8,0.,4.8,0.,4.8
1979-03-08 22:37:19.510 ,2,0,0.,4.8,3.,4.8,1.,4.8,0.,4.8
1979-03-08 22:37:24.310 ,2,0,0.,4.8,1.,4.8,0.,4.8,0.,4.8
1979-03-08 22:37:29.110 ,2,0,0.,4.8,1.,4.8,1.,4.8,0.,4.8
1979-03-08 22:37:33.910 ,3,0,0.,4.8,1.,4.8,0.,4.8,0.,4.8
1979-03-08 22:37:38.710 ,3,0,0.,4.8,0.,4.8,1.,4.8,0.,4.8
1979-03-08 22:37:43.510 ,3,0,0.,4.8,2.,4.8,0.,4.8,1.,4.8
1979-03-08 22:37:48.310 ,3,0,0.,4.8,1.,4.8,1.,4.8,0.,4.8
1979-03-08 22:37:53.110 ,3,0,0.,4.8,2.,4.8,0.,4.8,1.,4.8
1979-03-08 22:37:57.910 ,4,0,0.,4.8,1.,4.8,1.,4.8,0.,4.8
1979-03-08 22:38:02.710 ,4,0,0.,4.8,1.,4.8,2.,4.8,0.,4.8
1979-03-08 22:38:07.510 ,4,0,0.,4.8,1.,4.8,2.,4.8,0.,4.8
1979-03-08 22:38:12.310 ,4,0,0.,4.8,1.,4.8,1.,4.8,0.,4.8
1979-03-08 22:38:17.110 ,4,0,0.,4.8,0.,4.8,0.,4.8,0.,4.8
1979-03-08 22:38:21.910 ,5,0,0.,4.8,1.,4.8,0.,4.8,1.,4.8
1979-03-08 22:38:26.710 ,5,0,0.,4.8,0.,4.8,0.,4.8,0.,4.8
1979-03-08 22:38:31.510 ,5,0,0.,4.8,0.,4.8,2.,4.8,1.,4.8
1979-03-08 22:38:36.310 ,5,0,0.,4.8,1.,4.8,1.,4.8,1.,4.8
1979-03-08 22:38:41.110 ,5,0,0.,4.8,3.,4.8,0.,4.8,0.,4.8
1979-03-08 22:38:45.910 ,6,0,0.,4.8,4.,4.8,0.,4.8,0.,4.8
1979-03-08 22:38:50.710 ,6,0,0.,4.8,1.,4.8,0.,4.8,0.,4.8
1979-03-08 22:38:55.510 ,6,0,0.,4.8,2.,4.8,0.,4.8,0.,4.8
1979-03-08 22:39:00.310 ,6,0,0.,4.8,1.,4.8,0.,4.8,0.,4.8
1979-03-08 22:39:05.110 ,6,0,0.,4.8,2.,4.8,0.,4.8,0.,4.8
1979-03-08 22:39:09.910 ,7,0,0.,4.8,3.,4.8,0.,4.8,1.,4.8
1979-03-08 22:39:14.710 ,7,0,0.,4.8,2.,4.8,1.,4.8,0.,4.8
1979-03-08 22:39:19.510 ,7,0,0.,4.8,1.,4.8,0.,4.8,0.,4.8
1979-03-08 22:39:24.310 ,7,0,0.,4.8,0.,4.8,0.,4.8,0.,4.8
1979-03-08 22:39:29.110 ,7,0,0.,4.8,1.,4.8,0.,4.8,0.,4.8
1979-03-08 22:42:21.910 ,0,0,0.,4.8,0.,4.8,0.,4.8,1.,4.8
1979-03-08 22:42:26.710 ,0,0,0.,4.8,1.,4.8,0.,4.8,0.,4.8
1979-03-08 22:42:31.510 ,0,0,0.,4.8,2.,4.8,0.,4.8,0.,4.8
1979-03-08 22:42:36.310 ,0,0,0.,4.8,1.,4.8,2.,4.8,0.,4.8
1979-03-08 22:42:41.110 ,0,0,0.,4.8,1.,4.8,0.,4.8,0.,4.8
1979-03-08 22:42:45.910 ,0,0,0.,4.8,0.,4.8,1.,4.8,2.,4.8
1979-03-08 22:42:50.710 ,0,0,0.,4.8,2.,4.8,0.,4.8,0.,4.8
1979-03-08 22:42:55.510 ,0,0,0.,4.8,1.,4.8,0.,4.8,0.,4.8
1979-03-08 22:43:00.310 ,0,0,0.,4.8,1.,4.8,0.,4.8,0.,4.8
1979-03-08 22:43:05.110 ,0,0,0.,4.8,1.,4.8,0.,4.8,0.,4.8
1979-03-08 22:43:09.910 ,1,0,0.,4.8,1.,4.8,0.,4.8,0.,4.8
1979-03-08 22:43:14.710 ,1,0,0.,4.8,0.,4.8,0.,4.8,2.,4.8
1979-03-08 22:43:19.510 ,1,0,0.,4.8,2.,4.8,1.,4.8,0.,4.8
1979-03-08 22:43:24.310 ,1,0,0.,4.8,3.,4.8,0.,4.8,0.,4.8
1979-03-08 22:43:29.110 ,1,0,0.,4.8,4.,4.8,0.,4.8,1.,4.8
1979-03-08 22:43:33.910 ,2,0,0.,4.8,3.,4.8,1.,4.8,0.,4.8
1979-03-08 22:43:38.710 ,2,0,0.,4.8,3.,4.8,2.,4.8,1.,4.8
1979-03-08 22:43:43.510 ,2,0,0.,4.8,0.,4.8,1.,4.8,0.,4.8
1979-03-08 22:43:48.310 ,2,0,0.,4.8,0.,4.8,0.,4.8,0.,4.8
1979-03-08 22:43:53.110 ,2,0,0.,4.8,1.,4.8,0.,4.8,2.,4.8
1979-03-08 22:43:57.910 ,3,0,0.,4.8,1.,4.8,0.,4.8,1.,4.8
1979-03-08 22:44:02.710 ,3,0,0.,4.8,0.,4.8,0.,4.8,0.,4.8
1979-03-08 22:44:07.510 ,3,0,0.,4.8,3.,4.8,0.,4.8,1.,4.8
1979-03-08 22:44:12.310 ,3,0,0.,4.8,1.,4.8,1.,4.8,0.,4.8
1979-03-08 22:44:17.110 ,3,0,0.,4.8,1.,4.8,0.,4.8,0.,4.8
1979-03-08 22:44:21.910 ,4,0,0.,4.8,3.,4.8,1.,4.8,0.,4.8
1979-03-08 22:44:26.710 ,4,0,0.,4.8,1.,4.8,0.,4.8,0.,4.8
1979-03-08 22:44:31.510 ,4,0,0.,4.8,0.,4.8,0.,4.8,0.,4.8
1979-03-08 22:44:36.310 ,4,0,0.,4.8,1.,4.8,0.,4.8,0.,4.8
1979-03-08 22:44:41.110 ,4,0,0.,4.8,1.,4.8,0.,4.8,0.,4.8
1979-03-08 22:44:45.910 ,5,0,0.,4.8,3.,4.8,0.,4.8,0.,4.8
1979-03-08 22:44:50.710 ,5,0,0.,4.8,0.,4.8,1.,4.8,0.,4.8
1979-03-08 22:44:55.510 ,5,0,0.,4.8,1.,4.8,0.,4.8,1.,4.8
1979-03-08 22:45:00.310 ,5,0,0.,4.8,1.,4.8,3.,4.8,1.,4.8
1979-03-08 22:45:05.110 ,5,0,0.,4.8,0.,4.8,0.,4.8,1.,4.8
1979-03-08 22:55:09.910 ,0,0,0.,4.8,0.,4.8,0.,4.8,0.,4.8
1979-03-08 22:55:14.710 ,0,0,0.,4.8,3.,4.8,1.,4.8,1.,4.8
1979-03-08 22:55:19.510 ,0,0,0.,4.8,1.,4.8,0.,4.8,1.,4.8
1979-03-08 22:55:24.310 ,0,0,0.,4.8,0.,4.8,1.,4.8,0.,4.8
1979-03-08 22:55:29.110 ,0,0,0.,4.8,2.,4.8,0.,4.8,0.,4.8
1979-03-08 22:55:33.910 ,0,0,0.,4.8,0.,4.8,0.,4.8,0.,4.8
1979-03-08 22:55:38.710 ,0,0,0.,4.8,0.,4.8,0.,4.8,0.,4.8
1979-03-08 22:55:43.510 ,0,0,0.,4.8,1.,4.8,0.,4.8,1.,4.8
1979-03-08 22:55:48.310 ,0,0,0.,4.8,2.,4.8,1.,4.8,0.,4.8
1979-03-08 22:55:53.110 ,0,0,0.,4.8,3.,4.8,0.,4.8,0.,4.8
1979-03-08 22:55:57.910 ,1,0,0.,4.8,1.,4.8,2.,4.8,0.,4.8
1979-03-08 22:56:02.710 ,1,0,0.,4.8,0.,4.8,0.,4.8,0.,4.8
1979-03-08 22:56:07.510 ,1,0,0.,4.8,1.,4.8,1.,4.8,0.,4.8
1979-03-08 22:56:12.310 ,1,0,0.,4.8,1.,4.8,2.,4.8,0.,4.8
1979-03-08 22:56:17.110 ,1,0,0.,4.8,2.,4.8,0.,4.8,0.,4.8
1979-03-08 22:56:21.910 ,2,0,0.,4.8,0.,4.8,1.,4.8,0.,4.8
1979-03-08 22:56:26.710 ,2,0,0.,4.8,2.,4.8,1.,4.8,0.,4.8
1979-03-08 22:56:31.510 ,2,0,0.,4.8,2.,4.8,2.,4.8,0.,4.8
1979-03-08 22:56:36.310 ,2,0,0.,4.8,3.,4.8,0.,4.8,0.,4.8
1979-03-08 22:56:41.110 ,2,0,0.,4.8,0.,4.8,1.,4.8,0.,4.8
1979-03-08 22:56:45.910 ,3,0,0.,4.8,1.,4.8,1.,4.8,0.,4.8
1979-03-08 22:56:50.710 ,3,0,0.,4.8,3.,4.8,1.,4.8,0.,4.8
1979-03-08 22:56:55.510 ,3,0,0.,4.8,1.,4.8,0.,4.8,0.,4.8
1979-03-08 22:57:00.310 ,3,0,0.,4.8,1.,4.8,0.,4.8,0.,4.8
1979-03-08 22:57:05.110 ,3,0,0.,4.8,2.,4.8,0.,4.8,0.,4.8
1979-03-08 22:57:09.910 ,4,0,0.,4.8,0.,4.8,0.,4.8,0.,4.8
1979-03-08 22:57:14.710 ,4,0,0.,4.8,0.,4.8,1.,4.8,0.,4.8
1979-03-08 22:57:19.510 ,4,0,0.,4.8,1.,4.8,0.,4.8,2.,4.8
1979-03-08 22:57:24.310 ,4,0,0.,4.8,1.,4.8,0.,4.8,0.,4.8
1979-03-08 22:57:29.110 ,4,0,0.,4.8,5.,4.8,2.,4.8,2.,4.8
1979-03-08 22:57:33.910 ,5,0,0.,4.8,3.,4.8,1.,4.8,0.,4.8
1979-03-08 22:57:38.710 ,5,0,0.,4.8,4.,4.8,1.,4.8,0.,4.8
1979-03-08 22:57:43.510 ,5,0,0.,4.8,0.,4.8,1.,4.8,0.,4.8
1979-03-08 22:57:48.310 ,5,0,0.,4.8,1.,4.8,0.,4.8,0.,4.8
1979-03-08 22:57:53.110 ,5,0,0.,4.8,1.,4.8,0.,4.8,0.,4.8
1979-03-08 22:57:57.910 ,6,0,0.,4.8,1.,4.8,1.,4.8,1.,4.8
1979-03-08 22:58:02.710 ,6,0,0.,4.8,0.,4.8,1.,4.8,1.,4.8
1979-03-08 22:58:07.510 ,6,0,0.,4.8,3.,4.8,0.,4.8,0.,4.8
1979-03-08 22:58:12.310 ,6,0,0.,4.8,1.,4.8,1.,4.8,0.,4.8
1979-03-08 22:58:17.110 ,6,0,0.,4.8,0.,4.8,1.,4.8,1.,4.8
1979-03-08 22:58:21.910 ,7,0,0.,4.8,1.,4.8,1.,4.8,0.,4.8
1979-03-08 22:58:26.710 ,7,0,0.,4.8,1.,4.8,0.,4.8,0.,4.8
1979-03-08 22:58:31.510 ,7,0,0.,4.8,0.,4.8,1.,4.8,0.,4.8
1979-03-08 22:58:36.310 ,7,0,0.,4.8,0.,4.8,1.,4.8,0.,4.8
1979-03-08 22:58:41.110 ,7,0,0.,4.8,0.,4.8,0.,4.8,0.,4.8
1979-03-08 22:58:45.910 ,7,0,0.,4.8,0.,4.8,0.,4.8,1.,4.8
1979-03-08 22:58:50.710 ,7,0,0.,4.8,0.,4.8,1.,4.8,0.,4.8
1979-03-08 22:58:55.510 ,7,0,0.,4.8,0.,4.8,0.,4.8,0.,4.8
1979-03-08 22:59:00.310 ,7,0,0.,4.8,1.,4.8,0.,4.8,0.,4.8
1979-03-08 22:59:05.110 ,7,0,0.,4.8,1.,4.8,0.,4.8,2.,4.8
1979-03-08 22:59:09.910 ,6,0,0.,4.8,0.,4.8,1.,4.8,0.,4.8
1979-03-08 22:59:14.710 ,6,0,0.,4.8,0.,4.8,0.,4.8,0.,4.8
1979-03-08 22:59:19.510 ,6,0,0.,4.8,2.,4.8,0.,4.8,0.,4.8
1979-03-08 22:59:24.310 ,6,0,0.,4.8,2.,4.8,0.,4.8,0.,4.8
1979-03-08 22:59:29.110 ,6,0,0.,4.8,2.,4.8,1.,4.8,0.,4.8
1979-03-08 22:59:33.910 ,5,0,0.,4.8,1.,4.8,0.,4.8,0.,4.8
1979-03-08 22:59:38.710 ,5,0,0.,4.8,1.,4.8,0.,4.8,0.,4.8
1979-03-08 22:59:43.510 ,5,0,0.,4.8,0.,4.8,1.,4.8,2.,4.8
1979-03-08 22:59:48.310 ,5,0,0.,4.8,2.,4.8,1.,4.8,0.,4.8
1979-03-08 22:59:53.110 ,5,0,0.,4.8,2.,4.8,1.,4.8,0.,4.8
1979-03-08 22:59:57.910 ,4,0,0.,4.8,2.,4.8,0.,4.8,0.,4.8
1979-03-08 23:00:02.710 ,4,0,0.,4.8,0.,4.8,0.,4.8,1.,4.8
1979-03-08 23:00:07.510 ,4,0,0.,4.8,2.,4.8,0.,4.8,0.,4.8
1979-03-08 23:00:12.310 ,4,0,0.,4.8,2.,4.8,0.,4.8,0.,4.8
1979-03-08 23:00:17.110 ,4,0,0.,4.8,1.,4.8,0.,4.8,0.,4.8
1979-03-08 23:00:21.910 ,3,0,0.,4.8,0.,4.8,0.,4.8,0.,4.8
1979-03-08 23:00:26.710 ,3,0,0.,4.8,1.,4.8,0.,4.8,0.,4.8
1979-03-08 23:00:31.510 ,3,0,0.,4.8,0.,4.8,0.,4.8,1.,4.8
1979-03-08 23:00:36.310 ,3,0,0.,4.8,2.,4.8,0.,4.8,0.,4.8
1979-03-08 23:00:41.110 ,3,0,0.,4.8,0.,4.8,0.,4.8,0.,4.8
1979-03-08 23:00:45.910 ,2,0,0.,4.8,1.,4.8,0.,4.8,1.,4.8
1979-03-08 23:00:50.710 ,2,0,0.,4.8,3.,4.8,0.,4.8,0.,4.8
1979-03-08 23:00:55.510 ,2,0,0.,4.8,0.,4.8,0.,4.8,0.,4.8
1979-03-08 23:01:00.310 ,2,0,0.,4.8,0.,4.8,1.,4.8,1.,4.8
1979-03-08 23:01:05.110 ,2,0,0.,4.8,1.,4.8,0.,4.8,1.,4.8
1979-03-08 23:01:09.910 ,1,0,0.,4.8,5.,4.8,0.,4.8,1.,4.8
1979-03-08 23:01:14.710 ,1,0,0.,4.8,0.,4.8,2.,4.8,0.,4.8
1979-03-08 23:01:19.510 ,1,0,0.,4.8,2.,4.8,1.,4.8,0.,4.8
1979-03-08 23:01:24.310 ,1,0,0.,4.8,1.,4.8,2.,4.8,0.,4.8
1979-03-08 23:01:29.110 ,1,0,0.,4.8,0.,4.8,1.,4.8,0.,4.8
1979-03-08 23:01:33.910 ,0,0,0.,4.8,1.,4.8,1.,4.8,0.,4.8
1979-03-08 23:01:38.710 ,0,0,0.,4.8,6.,4.8,1.,4.8,0.,4.8
1979-03-08 23:01:43.510 ,0,0,0.,4.8,3.,4.8,0.,4.8,0.,4.8
1979-03-08 23:01:48.310 ,0,0,0.,4.8,0.,4.8,0.,4.8,0.,4.8
1979-03-08 23:01:53.110 ,0,0,0.,4.8,1.,4.8,0.,4.8,0.,4.8
1979-03-08 23:01:57.910 ,0,0,0.,4.8,0.,4.8,0.,4.8,0.,4.8
1979-03-08 23:02:02.710 ,0,0,0.,4.8,1.,4.8,0.,4.8,0.,4.8
1979-03-08 23:02:07.510 ,0,0,0.,4.8,1.,4.8,0.,4.8,0.,4.8
1979-03-08 23:02:12.310 ,0,0,0.,4.8,2.,4.8,0.,4.8,0.,4.8
1979-03-08 23:02:17.110 ,0,0,0.,4.8,1.,4.8,0.,4.8,0.,4.8
1979-03-08 23:02:21.910 ,1,0,0.,4.8,0.,4.8,1.,4.8,0.,4.8
1979-03-08 23:02:26.710 ,1,0,0.,4.8,0.,4.8,1.,4.8,0.,4.8
1979-03-08 23:02:31.510 ,1,0,0.,4.8,2.,4.8,0.,4.8,0.,4.8
1979-03-08 23:02:36.310 ,1,0,0.,4.8,1.,4.8,0.,4.8,0.,4.8
1979-03-08 23:02:41.110 ,1,0,0.,4.8,4.,4.8,1.,4.8,1.,4.8
1979-03-08 23:02:45.910 ,2,0,0.,4.8,5.,4.8,0.,4.8,0.,4.8
1979-03-08 23:02:50.710 ,2,0,0.,4.8,0.,4.8,2.,4.8,0.,4.8
1979-03-08 23:02:55.510 ,2,0,0.,4.8,0.,4.8,0.,4.8,0.,4.8
1979-03-08 23:03:00.310 ,2,0,0.,4.8,3.,4.8,0.,4.8,1.,4.8
1979-03-08 23:03:05.110 ,2,0,0.,4.8,3.,4.8,0.,4.8,0.,4.8
1979-03-08 23:03:09.910 ,3,0,0.,4.8,0.,4.8,1.,4.8,1.,4.8
1979-03-08 23:03:14.710 ,3,0,0.,4.8,1.,4.8,0.,4.8,1.,4.8
1979-03-08 23:03:19.510 ,3,0,0.,4.8,3.,4.8,0.,4.8,0.,4.8
1979-03-08 23:03:24.310 ,3,0,0.,4.8,0.,4.8,0.,4.8,0.,4.8
1979-03-08 23:03:29.110 ,3,0,0.,4.8,1.,4.8,0.,4.8,0.,4.8
1979-03-08 23:03:33.910 ,4,0,0.,4.8,1.,4.8,0.,4.8,1.,4.8
1979-03-08 23:03:38.710 ,4,0,0.,4.8,1.,4.8,0.,4.8,0.,4.8
1979-03-08 23:03:43.510 ,4,0,0.,4.8,0.,4.8,1.,4.8,1.,4.8
1979-03-08 23:03:48.310 ,4,0,0.,4.8,0.,4.8,1.,4.8,1.,4.8
1979-03-08 23:03:53.110 ,4,0,0.,4.8,1.,4.8,0.,4.8,0.,4.8
1979-03-08 23:03:57.910 ,5,0,0.,4.8,4.,4.8,0.,4.8,1.,4.8
1979-03-08 23:04:02.710 ,5,0,0.,4.8,0.,4.8,1.,4.8,0.,4.8
1979-03-08 23:04:07.510 ,5,0,0.,4.8,0.,4.8,0.,4.8,0.,4.8
1979-03-08 23:04:12.310 ,5,0,0.,4.8,0.,4.8,1.,4.8,0.,4.8
1979-03-08 23:04:17.110 ,5,0,0.,4.8,1.,4.8,1.,4.8,2.,4.8
1979-03-08 23:04:21.910 ,6,0,0.,4.8,2.,4.8,0.,4.8,0.,4.8
1979-03-08 23:04:26.710 ,6,0,0.,4.8,1.,4.8,0.,4.8,0.,4.8
1979-03-08 23:04:31.510 ,6,0,0.,4.8,1.,4.8,0.,4.8,2.,4.8
1979-03-08 23:04:36.310 ,6,0,0.,4.8,0.,4.8,0.,4.8,1.,4.8
1979-03-08 23:04:41.110 ,6,0,0.,4.8,0.,4.8,0.,4.8,0.,4.8
1979-03-08 23:04:45.910 ,7,0,0.,4.8,0.,4.8,1.,4.8,0.,4.8
1979-03-08 23:04:50.710 ,7,0,0.,4.8,1.,4.8,1.,4.8,2.,4.8
1979-03-08 23:04:55.510 ,7,0,0.,4.8,0.,4.8,0.,4.8,0.,4.8
1979-03-08 23:05:00.310 ,7,0,0.,4.8,1.,4.8,0.,4.8,0.,4.8
1979-03-08 23:05:05.110 ,7,0,0.,4.8,0.,4.8,0.,4.8,1.,4.8
1979-03-08 23:05:09.910 ,7,0,0.,4.8,0.,4.8,1.,4.8,0.,4.8
1979-03-08 23:05:14.710 ,7,0,0.,4.8,1.,4.8,0.,4.8,0.,4.8
1979-03-08 23:05:19.510 ,7,0,0.,4.8,2.,4.8,1.,4.8,0.,4.8
1979-03-08 23:05:24.310 ,7,0,0.,4.8,2.,4.8,0.,4.8,0.,4.8
1979-03-08 23:05:29.110 ,7,0,0.,4.8,0.,4.8,0.,4.8,1.,4.8
1979-03-08 23:05:33.910 ,6,0,0.,4.8,0.,4.8,0.,4.8,0.,4.8
1979-03-08 23:05:38.710 ,6,0,0.,4.8,1.,4.8,0.,4.8,0.,4.8
1979-03-08 23:05:43.510 ,6,0,0.,4.8,1.,4.8,0.,4.8,0.,4.8
1979-03-08 23:05:48.310 ,6,0,0.,4.8,1.,4.8,0.,4.8,2.,4.8
1979-03-08 23:05:53.110 ,6,0,0.,4.8,1.,4.8,0.,4.8,0.,4.8
1979-03-08 23:05:57.910 ,5,0,0.,4.8,0.,4.8,2.,4.8,0.,4.8
1979-03-08 23:06:02.710 ,5,0,0.,4.8,1.,4.8,0.,4.8,0.,4.8
1979-03-08 23:06:07.510 ,5,0,0.,4.8,0.,4.8,0.,4.8,2.,4.8
1979-03-08 23:06:12.310 ,5,0,0.,4.8,2.,4.8,0.,4.8,0.,4.8
1979-03-08 23:06:17.110 ,5,0,0.,4.8,2.,4.8,0.,4.8,0.,4.8
1979-03-08 23:06:21.910 ,4,0,0.,4.8,0.,4.8,1.,4.8,2.,4.8
1979-03-08 23:06:26.710 ,4,0,0.,4.8,0.,4.8,1.,4.8,0.,4.8
1979-03-08 23:06:31.510 ,4,0,0.,4.8,1.,4.8,0.,4.8,1.,4.8
1979-03-08 23:06:36.310 ,4,0,0.,4.8,0.,4.8,0.,4.8,0.,4.8
1979-03-08 23:06:41.110 ,4,0,0.,4.8,0.,4.8,1.,4.8,1.,4.8
1979-03-08 23:06:45.910 ,3,0,0.,4.8,0.,4.8,0.,4.8,1.,4.8
1979-03-08 23:06:50.710 ,3,0,0.,4.8,1.,4.8,1.,4.8,0.,4.8
1979-03-08 23:06:55.510 ,3,0,0.,4.8,3.,4.8,1.,4.8,1.,4.8
1979-03-08 23:07:00.310 ,3,0,0.,4.8,1.,4.8,0.,4.8,1.,4.8
1979-03-08 23:07:05.110 ,3,0,0.,4.8,0.,4.8,1.,4.8,0.,4.8
1979-03-08 23:07:09.910 ,2,0,0.,4.8,0.,4.8,0.,4.8,0.,4.8
1979-03-08 23:07:14.710 ,2,0,0.,4.8,0.,4.8,0.,4.8,1.,4.8
1979-03-08 23:07:19.510 ,2,0,0.,4.8,2.,4.8,1.,4.8,1.,4.8
1979-03-08 23:07:24.310 ,2,0,0.,4.8,1.,4.8,1.,4.8,1.,4.8
1979-03-08 23:07:29.110 ,2,0,0.,4.8,0.,4.8,0.,4.8,1.,4.8
1979-03-08 23:07:33.910 ,1,0,0.,4.8,1.,4.8,0.,4.8,0.,4.8
1979-03-08 23:07:38.710 ,1,0,0.,4.8,2.,4.8,2.,4.8,0.,4.8
1979-03-08 23:07:43.510 ,1,0,0.,4.8,0.,4.8,0.,4.8,0.,4.8
1979-03-08 23:07:48.310 ,1,0,0.,4.8,1.,4.8,0.,4.8,0.,4.8
1979-03-08 23:07:53.110 ,1,0,0.,4.8,0.,4.8,0.,4.8,0.,4.8
1979-03-08 23:07:57.910 ,0,0,0.,4.8,0.,4.8,0.,4.8,0.,4.8
1979-03-08 23:08:02.710 ,0,0,0.,4.8,1.,4.8,0.,4.8,0.,4.8
1979-03-08 23:08:07.510 ,0,0,0.,4.8,0.,4.8,1.,4.8,0.,4.8
1979-03-08 23:08:12.310 ,0,0,0.,4.8,1.,4.8,1.,4.8,0.,4.8
1979-03-08 23:08:17.110 ,0,0,0.,4.8,1.,4.8,0.,4.8,0.,4.8
1979-03-08 23:08:21.910 ,0,0,0.,4.8,1.,4.8,0.,4.8,1.,4.8
1979-03-08 23:08:26.710 ,0,0,0.,4.8,1.,4.8,0.,4.8,1.,4.8
1979-03-08 23:08:31.510 ,0,0,0.,4.8,1.,4.8,0.,4.8,0.,4.8
1979-03-08 23:08:36.310 ,0,0,0.,4.8,0.,4.8,0.,4.8,0.,4.8
1979-03-08 23:08:41.110 ,0,0,0.,4.8,1.,4.8,0.,4.8,2.,4.8
1979-03-08 23:08:45.910 ,1,0,0.,4.8,1.,4.8,0.,4.8,2.,4.8
1979-03-08 23:08:50.710 ,1,0,0.,4.8,3.,4.8,0.,4.8,0.,4.8